Year,Month,Day,Hour,Minute,Value (Times are PST for temperature in C)
2015,05,19,00,00,15.70
2015,05,19,00,01,15.80
2015,05,19,00,02,15.80
2015,05,19,00,03,15.80
2015,05,19,00,04,15.90
2015,05,19,00,05,15.90
2015,05,19,00,06,15.90
2015,05,19,00,07,15.90
2015,05,19,00,08,15.90
2015,05,19,00,09,15.90
2015,05,19,00,10,15.90
2015,05,19,00,11,15.90
2015,05,19,00,12,15.80
2015,05,19,00,13,15.80
2015,05,19,00,14,15.80
2015,05,19,00,15,15.80
2015,05,19,00,16,15.70
2015,05,19,00,17,15.70
2015,05,19,00,18,15.70
2015,05,19,00,19,15.70
2015,05,19,00,20,15.70
2015,05,19,00,21,15.70
2015,05,19,00,22,15.80
2015,05,19,00,23,15.80
2015,05,19,00,24,15.80
2015,05,19,00,25,15.80
2015,05,19,00,26,15.80
2015,05,19,00,27,15.80
2015,05,19,00,28,15.80
2015,05,19,00,29,15.80
2015,05,19,00,30,15.70
2015,05,19,00,31,15.70
2015,05,19,00,32,15.70
2015,05,19,00,33,15.70
2015,05,19,00,34,15.60
2015,05,19,00,35,15.60
2015,05,19,00,36,15.60
2015,05,19,00,37,15.60
2015,05,19,00,38,15.50
2015,05,19,00,39,15.50
2015,05,19,00,40,15.50
2015,05,19,00,41,15.50
2015,05,19,00,42,15.40
2015,05,19,00,43,15.40
2015,05,19,00,44,15.40
2015,05,19,00,45,15.40
2015,05,19,00,46,15.40
2015,05,19,00,47,15.40
2015,05,19,00,48,15.30
2015,05,19,00,49,15.30
2015,05,19,00,50,15.30
2015,05,19,00,51,15.30
2015,05,19,00,52,15.30
2015,05,19,00,53,15.30
2015,05,19,00,54,15.30
2015,05,19,00,55,15.30
2015,05,19,00,56,15.30
2015,05,19,00,57,15.30
2015,05,19,00,58,15.30
2015,05,19,00,59,15.30
2015,05,19,01,00,15.30
2015,05,19,01,01,15.30
2015,05,19,01,02,15.30
2015,05,19,01,03,15.40
2015,05,19,01,04,15.30
2015,05,19,01,05,15.30
2015,05,19,01,06,15.30
2015,05,19,01,07,15.30
2015,05,19,01,08,15.30
2015,05,19,01,09,15.30
2015,05,19,01,10,15.30
2015,05,19,01,11,15.30
2015,05,19,01,12,15.20
2015,05,19,01,13,15.20
2015,05,19,01,14,15.10
2015,05,19,01,15,15.10
2015,05,19,01,16,15.00
2015,05,19,01,17,14.90
2015,05,19,01,18,14.90
2015,05,19,01,19,14.80
2015,05,19,01,20,14.70
2015,05,19,01,21,14.70
2015,05,19,01,22,14.60
2015,05,19,01,23,14.50
2015,05,19,01,24,14.40
2015,05,19,01,25,14.40
2015,05,19,01,26,14.30
2015,05,19,01,27,14.30
2015,05,19,01,28,14.30
2015,05,19,01,29,14.20
2015,05,19,01,30,14.20
2015,05,19,01,31,14.20
2015,05,19,01,32,14.10
2015,05,19,01,33,14.10
2015,05,19,01,34,14.10
2015,05,19,01,35,14.00
2015,05,19,01,36,14.00
2015,05,19,01,37,14.00
2015,05,19,01,38,14.00
2015,05,19,01,39,13.90
2015,05,19,01,40,13.90
2015,05,19,01,41,13.90
2015,05,19,01,42,13.90
2015,05,19,01,43,13.90
2015,05,19,01,44,13.90
2015,05,19,01,45,13.90
2015,05,19,01,46,13.90
2015,05,19,01,47,14.00
2015,05,19,01,48,14.10
2015,05,19,01,49,14.10
2015,05,19,01,50,14.20
2015,05,19,01,51,14.20
2015,05,19,01,52,14.30
2015,05,19,01,53,14.30
2015,05,19,01,54,14.30
2015,05,19,01,55,14.40
2015,05,19,01,56,14.40
2015,05,19,01,57,14.40
2015,05,19,01,58,14.40
2015,05,19,01,59,14.40
2015,05,19,02,00,14.40
2015,05,19,02,01,14.40
2015,05,19,02,02,14.40
2015,05,19,02,03,14.50
2015,05,19,02,04,14.50
2015,05,19,02,05,14.50
2015,05,19,02,06,14.60
2015,05,19,02,07,14.60
2015,05,19,02,08,14.60
2015,05,19,02,09,14.60
2015,05,19,02,10,14.70
2015,05,19,02,11,14.70
2015,05,19,02,12,14.70
2015,05,19,02,13,14.70
2015,05,19,02,14,14.70
2015,05,19,02,15,14.80
2015,05,19,02,16,14.80
2015,05,19,02,17,14.80
2015,05,19,02,18,14.80
2015,05,19,02,19,14.80
2015,05,19,02,20,14.80
2015,05,19,02,21,14.80
2015,05,19,02,22,14.80
2015,05,19,02,23,14.80
2015,05,19,02,24,14.80
2015,05,19,02,25,14.80
2015,05,19,02,26,14.80
2015,05,19,02,27,14.80
2015,05,19,02,28,14.80
2015,05,19,02,29,14.80
2015,05,19,02,30,14.80
2015,05,19,02,31,14.80
2015,05,19,02,32,14.70
2015,05,19,02,33,14.70
2015,05,19,02,34,14.70
2015,05,19,02,35,14.60
2015,05,19,02,36,14.60
2015,05,19,02,37,14.60
2015,05,19,02,38,14.50
2015,05,19,02,39,14.50
2015,05,19,02,40,14.40
2015,05,19,02,41,14.40
2015,05,19,02,42,14.30
2015,05,19,02,43,14.30
2015,05,19,02,44,14.20
2015,05,19,02,45,14.10
2015,05,19,02,46,14.10
2015,05,19,02,47,14.00
2015,05,19,02,48,14.00
2015,05,19,02,49,13.90
2015,05,19,02,50,13.90
2015,05,19,02,51,13.90
2015,05,19,02,52,13.90
2015,05,19,02,53,13.90
2015,05,19,02,54,13.90
2015,05,19,02,55,13.90
2015,05,19,02,56,13.90
2015,05,19,02,57,14.00
2015,05,19,02,58,14.00
2015,05,19,02,59,14.00
2015,05,19,03,00,14.10
2015,05,19,03,01,14.10
2015,05,19,03,02,14.10
2015,05,19,03,03,14.10
2015,05,19,04,02,13.70
2015,05,19,04,03,13.60
2015,05,19,04,04,13.60
2015,05,19,04,05,13.60
2015,05,19,04,06,13.60
2015,05,19,04,07,13.60
2015,05,19,04,08,13.60
2015,05,19,04,09,13.60
2015,05,19,04,10,13.60
2015,05,19,04,11,13.60
2015,05,19,04,12,13.60
2015,05,19,04,13,13.60
2015,05,19,04,14,13.60
2015,05,19,04,15,13.60
2015,05,19,04,16,13.60
2015,05,19,04,17,13.60
2015,05,19,04,18,13.60
2015,05,19,04,19,13.60
2015,05,19,04,20,13.60
2015,05,19,04,21,13.60
2015,05,19,04,22,13.60
2015,05,19,04,23,13.60
2015,05,19,04,24,13.50
2015,05,19,04,25,13.50
2015,05,19,04,26,13.50
2015,05,19,04,27,13.50
2015,05,19,04,28,13.50
2015,05,19,04,29,13.50
2015,05,19,04,30,13.60
2015,05,19,04,31,13.60
2015,05,19,04,32,13.60
2015,05,19,04,33,13.60
2015,05,19,04,34,13.60
2015,05,19,04,35,13.60
2015,05,19,04,36,13.60
2015,05,19,04,37,13.60
2015,05,19,04,38,13.50
2015,05,19,04,39,13.50
2015,05,19,04,40,13.50
2015,05,19,04,41,13.50
2015,05,19,04,42,13.40
2015,05,19,04,43,13.40
2015,05,19,04,44,13.40
2015,05,19,04,45,13.40
2015,05,19,04,46,13.40
2015,05,19,04,47,13.40
2015,05,19,04,48,13.40
2015,05,19,04,49,13.40
2015,05,19,04,50,13.40
2015,05,19,04,51,13.40
2015,05,19,04,52,13.40
2015,05,19,04,53,13.40
2015,05,19,04,54,13.50
2015,05,19,04,55,13.50
2015,05,19,04,56,13.50
2015,05,19,04,57,13.50
2015,05,19,04,58,13.40
2015,05,19,04,59,13.40
2015,05,19,05,00,13.40
2015,05,19,05,01,13.40
2015,05,19,05,02,13.40
2015,05,19,05,03,13.40
2015,05,19,05,04,13.40
2015,05,19,05,05,13.40
2015,05,19,05,06,13.40
2015,05,19,05,07,13.40
2015,05,19,05,08,13.40
2015,05,19,05,09,13.40
2015,05,19,05,10,13.40
2015,05,19,05,11,13.40
2015,05,19,05,12,13.30
2015,05,19,05,13,13.30
2015,05,19,05,14,13.30
2015,05,19,05,15,13.30
2015,05,19,05,16,13.30
2015,05,19,05,17,13.30
2015,05,19,05,18,13.30
2015,05,19,05,19,13.30
2015,05,19,05,20,13.30
2015,05,19,05,21,13.20
2015,05,19,05,22,13.20
2015,05,19,05,23,13.20
2015,05,19,05,24,13.20
2015,05,19,05,25,13.20
2015,05,19,05,26,13.20
2015,05,19,05,27,13.20
2015,05,19,05,28,13.10
2015,05,19,05,29,13.10
2015,05,19,05,30,13.10
2015,05,19,05,31,13.10
2015,05,19,05,32,13.10
2015,05,19,05,33,13.10
2015,05,19,05,34,13.10
2015,05,19,05,35,13.00
2015,05,19,05,36,13.00
2015,05,19,05,37,13.00
2015,05,19,05,38,13.00
2015,05,19,05,39,13.00
2015,05,19,05,40,12.90
2015,05,19,05,41,12.90
2015,05,19,05,42,12.90
2015,05,19,05,43,12.90
2015,05,19,05,44,12.90
2015,05,19,05,45,12.90
2015,05,19,05,46,12.80
2015,05,19,05,47,12.80
2015,05,19,05,48,12.80
2015,05,19,05,49,12.80
2015,05,19,05,50,12.80
2015,05,19,05,51,12.80
2015,05,19,05,52,12.80
2015,05,19,05,53,12.80
2015,05,19,05,54,12.80
2015,05,19,05,55,12.80
2015,05,19,05,56,12.80
2015,05,19,05,57,12.80
2015,05,19,05,58,12.80
2015,05,19,05,59,12.80
2015,05,19,06,00,12.90
2015,05,19,06,01,12.90
2015,05,19,06,02,12.90
2015,05,19,06,03,12.90
2015,05,19,06,04,12.90
2015,05,19,06,05,12.90
2015,05,19,06,06,12.90
2015,05,19,06,07,13.00
2015,05,19,06,08,13.00
2015,05,19,06,09,13.00
2015,05,19,06,10,13.10
2015,05,19,06,11,13.10
2015,05,19,06,12,13.10
2015,05,19,06,13,13.20
2015,05,19,06,14,13.20
2015,05,19,06,15,13.20
2015,05,19,06,16,13.20
2015,05,19,06,17,13.30
2015,05,19,06,18,13.30
2015,05,19,06,19,13.30
2015,05,19,06,20,13.30
2015,05,19,06,21,13.40
2015,05,19,06,22,13.40
2015,05,19,06,23,13.40
2015,05,19,06,24,13.50
2015,05,19,06,25,13.50
2015,05,19,06,26,13.60
2015,05,19,06,27,13.60
2015,05,19,06,28,13.60
2015,05,19,06,29,13.60
2015,05,19,06,30,13.70
2015,05,19,06,31,13.70
2015,05,19,06,32,13.70
2015,05,19,06,33,13.70
2015,05,19,06,34,13.70
2015,05,19,06,35,13.70
2015,05,19,06,36,13.70
2015,05,19,06,37,13.70
2015,05,19,06,38,13.80
2015,05,19,06,39,13.80
2015,05,19,06,40,13.80
2015,05,19,06,41,13.80
2015,05,19,06,42,13.80
2015,05,19,06,43,13.80
2015,05,19,06,44,13.80
2015,05,19,06,45,13.80
2015,05,19,06,46,13.80
2015,05,19,06,47,13.80
2015,05,19,06,48,13.80
2015,05,19,06,49,13.80
2015,05,19,06,50,13.80
2015,05,19,06,51,13.80
2015,05,19,06,52,13.90
2015,05,19,06,53,13.90
2015,05,19,06,54,13.90
2015,05,19,06,55,13.90
2015,05,19,06,56,14.00
2015,05,19,06,57,14.00
2015,05,19,06,58,14.10
2015,05,19,06,59,14.10
2015,05,19,07,00,14.10
2015,05,19,07,01,14.20
2015,05,19,07,02,14.20
2015,05,19,07,03,14.20
2015,05,19,07,04,14.30
2015,05,19,07,05,14.30
2015,05,19,07,06,14.30
2015,05,19,07,07,14.40
2015,05,19,07,08,14.40
2015,05,19,07,09,14.40
2015,05,19,07,10,14.40
2015,05,19,07,11,14.50
2015,05,19,07,12,14.50
2015,05,19,07,13,14.60
2015,05,19,07,14,14.60
2015,05,19,07,15,14.60
2015,05,19,07,16,14.70
2015,05,19,07,17,14.70
2015,05,19,07,18,14.70
2015,05,19,07,19,14.70
2015,05,19,07,20,14.70
2015,05,19,07,21,14.70
2015,05,19,07,22,14.80
2015,05,19,07,23,14.80
2015,05,19,07,24,14.80
2015,05,19,07,25,14.80
2015,05,19,07,26,14.80
2015,05,19,07,27,14.90
2015,05,19,07,28,14.90
2015,05,19,07,29,14.90
2015,05,19,07,30,14.90
2015,05,19,07,31,15.00
2015,05,19,07,32,15.00
2015,05,19,07,33,15.00
2015,05,19,07,34,15.10
2015,05,19,07,35,15.10
2015,05,19,07,36,15.10
2015,05,19,07,37,15.10
2015,05,19,07,38,15.20
2015,05,19,07,39,15.20
2015,05,19,07,40,15.20
2015,05,19,07,41,15.20
2015,05,19,07,42,15.30
2015,05,19,07,43,15.30
2015,05,19,07,44,15.30
2015,05,19,07,45,15.30
2015,05,19,07,46,15.30
2015,05,19,07,47,15.40
2015,05,19,07,48,15.40
2015,05,19,07,49,15.40
2015,05,19,07,50,15.50
2015,05,19,07,51,15.50
2015,05,19,07,52,15.60
2015,05,19,07,53,15.60
2015,05,19,07,54,15.60
2015,05,19,07,55,15.60
2015,05,19,07,56,15.60
2015,05,19,07,57,15.70
2015,05,19,07,58,15.80
2015,05,19,07,59,15.80
2015,05,19,08,00,15.90
2015,05,19,08,01,15.90
2015,05,19,08,02,15.90
2015,05,19,08,03,16.00
2015,05,19,08,04,16.00
2015,05,19,08,05,16.10
2015,05,19,08,06,16.10
2015,05,19,08,07,16.20
2015,05,19,08,08,16.20
2015,05,19,08,09,16.20
2015,05,19,08,10,16.20
2015,05,19,08,11,16.20
2015,05,19,08,12,16.30
2015,05,19,08,13,16.30
2015,05,19,08,14,16.40
2015,05,19,08,15,16.40
2015,05,19,08,16,16.50
2015,05,19,08,17,16.60
2015,05,19,08,18,16.60
2015,05,19,08,19,16.70
2015,05,19,08,20,16.70
2015,05,19,08,21,16.80
2015,05,19,08,22,16.80
2015,05,19,08,23,16.80
2015,05,19,08,24,16.80
2015,05,19,08,25,16.80
2015,05,19,08,26,16.80
2015,05,19,08,27,16.80
2015,05,19,08,28,16.80
2015,05,19,08,29,16.90
2015,05,19,08,30,16.90
2015,05,19,08,31,17.00
2015,05,19,08,32,17.00
2015,05,19,08,33,17.00
2015,05,19,08,34,17.00
2015,05,19,08,35,17.10
2015,05,19,08,36,17.10
2015,05,19,08,37,17.10
2015,05,19,08,38,17.20
2015,05,19,08,39,17.20
2015,05,19,08,40,17.20
2015,05,19,08,41,17.20
2015,05,19,08,42,17.30
2015,05,19,08,43,17.40
2015,05,19,08,44,17.40
2015,05,19,08,45,17.50
2015,05,19,08,46,17.50
2015,05,19,08,47,17.60
2015,05,19,08,48,17.60
2015,05,19,08,49,17.60
2015,05,19,08,50,17.60
2015,05,19,08,51,17.70
2015,05,19,08,52,17.70
2015,05,19,08,53,17.80
2015,05,19,08,54,17.90
2015,05,19,08,55,18.00
2015,05,19,08,56,18.00
2015,05,19,08,57,18.10
2015,05,19,08,58,18.10
2015,05,19,08,59,18.00
2015,05,19,09,00,18.00
2015,05,19,09,01,17.90
2015,05,19,09,02,18.00
2015,05,19,09,03,18.00
2015,05,19,09,04,18.00
2015,05,19,09,05,18.00
2015,05,19,09,06,18.00
2015,05,19,09,07,17.90
2015,05,19,09,08,17.90
2015,05,19,09,09,17.80
2015,05,19,09,10,17.80
2015,05,19,09,11,17.80
2015,05,19,09,12,17.70
2015,05,19,09,13,17.70
2015,05,19,09,14,17.60
2015,05,19,09,15,17.50
2015,05,19,09,16,17.50
2015,05,19,09,17,17.40
2015,05,19,09,18,17.30
2015,05,19,09,19,17.30
2015,05,19,09,20,17.20
2015,05,19,09,21,17.20
2015,05,19,09,22,17.20
2015,05,19,09,23,17.20
2015,05,19,09,24,17.30
2015,05,19,09,25,17.40
2015,05,19,09,26,17.50
2015,05,19,09,27,17.50
2015,05,19,09,28,17.60
2015,05,19,09,29,17.60
2015,05,19,09,30,17.60
2015,05,19,09,31,17.60
2015,05,19,09,32,17.50
2015,05,19,09,33,17.50
2015,05,19,09,34,17.40
2015,05,19,09,35,17.40
2015,05,19,09,36,17.40
2015,05,19,09,37,17.30
2015,05,19,09,38,17.30
2015,05,19,09,39,17.30
2015,05,19,09,40,17.30
2015,05,19,09,41,17.30
2015,05,19,09,42,17.30
2015,05,19,09,43,17.40
2015,05,19,09,44,17.40
2015,05,19,09,45,17.40
2015,05,19,09,46,17.50
2015,05,19,09,47,17.50
2015,05,19,09,48,17.60
2015,05,19,09,49,17.70
2015,05,19,09,50,17.70
2015,05,19,09,51,17.90
2015,05,19,09,52,18.00
2015,05,19,09,53,18.10
2015,05,19,09,54,18.20
2015,05,19,09,55,18.30
2015,05,19,09,56,18.40
2015,05,19,09,57,18.50
2015,05,19,09,58,18.60
2015,05,19,09,59,18.70
2015,05,19,10,00,18.80
2015,05,19,10,01,18.80
2015,05,19,10,02,18.70
2015,05,19,10,03,18.80
2015,05,19,10,04,18.80
2015,05,19,10,05,18.80
2015,05,19,10,06,18.70
2015,05,19,10,07,18.70
2015,05,19,10,08,18.70
2015,05,19,10,09,18.70
2015,05,19,10,10,18.70
2015,05,19,10,11,18.60
2015,05,19,10,12,18.60
2015,05,19,10,13,18.60
2015,05,19,10,14,18.60
2015,05,19,10,15,18.60
2015,05,19,10,16,18.60
2015,05,19,10,17,18.60
2015,05,19,10,18,18.60
2015,05,19,10,19,18.60
2015,05,19,10,20,18.60
2015,05,19,10,21,18.70
2015,05,19,10,22,18.70
2015,05,19,10,23,18.80
2015,05,19,10,24,18.80
2015,05,19,10,25,18.80
2015,05,19,10,26,18.70
2015,05,19,10,27,18.70
2015,05,19,10,28,18.70
2015,05,19,10,29,18.70
2015,05,19,10,30,18.70
2015,05,19,10,31,18.70
2015,05,19,10,32,18.70
2015,05,19,10,33,18.70
2015,05,19,10,34,18.70
2015,05,19,10,35,18.70
2015,05,19,10,36,18.70
2015,05,19,10,37,18.70
2015,05,19,10,38,18.70
2015,05,19,10,39,18.80
2015,05,19,10,40,18.80
2015,05,19,10,41,18.90
2015,05,19,10,42,19.00
2015,05,19,10,43,19.00
2015,05,19,10,44,19.10
2015,05,19,10,45,19.10
2015,05,19,10,46,19.10
2015,05,19,10,47,19.10
2015,05,19,10,48,19.00
2015,05,19,10,49,19.00
2015,05,19,10,50,19.00
2015,05,19,10,51,19.10
2015,05,19,10,52,19.00
2015,05,19,10,53,19.00
2015,05,19,10,54,19.10
2015,05,19,10,55,19.10
2015,05,19,10,56,19.10
2015,05,19,10,57,19.10
2015,05,19,10,58,19.10
2015,05,19,10,59,19.10
2015,05,19,11,00,19.20
2015,05,19,11,01,19.20
2015,05,19,11,02,19.30
2015,05,19,11,03,19.20
2015,05,19,11,04,19.30
2015,05,19,11,05,19.30
2015,05,19,11,06,19.30
2015,05,19,11,07,19.30
2015,05,19,11,08,19.40
2015,05,19,11,09,19.50
2015,05,19,11,10,19.60
2015,05,19,11,11,19.60
2015,05,19,11,12,19.60
2015,05,19,11,13,19.60
2015,05,19,11,14,19.60
2015,05,19,11,15,19.60
2015,05,19,11,16,19.60
2015,05,19,11,17,19.70
2015,05,19,11,18,19.70
2015,05,19,11,19,19.80
2015,05,19,11,20,19.80
2015,05,19,11,21,19.90
2015,05,19,11,22,20.00
2015,05,19,11,23,20.00
2015,05,19,11,24,20.00
2015,05,19,11,25,20.10
2015,05,19,11,26,20.20
2015,05,19,11,27,20.20
2015,05,19,11,28,20.30
2015,05,19,11,29,20.30
2015,05,19,11,30,20.40
2015,05,19,11,31,20.50
2015,05,19,11,32,20.50
2015,05,19,11,33,20.60
2015,05,19,11,34,20.60
2015,05,19,11,35,20.60
2015,05,19,11,36,20.60
2015,05,19,11,37,20.60
2015,05,19,11,38,20.60
2015,05,19,11,39,20.70
2015,05,19,11,40,20.70
2015,05,19,11,41,20.80
2015,05,19,11,42,20.90
2015,05,19,11,43,20.90
2015,05,19,11,44,21.00
2015,05,19,11,45,21.00
2015,05,19,11,46,21.00
2015,05,19,11,47,21.00
2015,05,19,11,48,21.10
2015,05,19,11,49,21.10
2015,05,19,11,50,21.10
2015,05,19,11,51,21.20
2015,05,19,11,52,21.10
2015,05,19,11,53,21.10
2015,05,19,11,54,21.10
2015,05,19,11,55,21.10
2015,05,19,11,56,21.10
2015,05,19,11,57,21.10
2015,05,19,11,58,21.20
2015,05,19,11,59,21.20
2015,05,19,12,00,21.30
2015,05,19,12,01,21.40
2015,05,19,12,02,21.40
2015,05,19,12,03,21.30
2015,05,19,12,04,21.30
2015,05,19,12,05,21.30
2015,05,19,12,06,21.20
2015,05,19,12,07,21.20
2015,05,19,12,08,21.10
2015,05,19,12,09,21.10
2015,05,19,12,10,21.20
2015,05,19,12,11,21.20
2015,05,19,12,12,21.30
2015,05,19,12,13,21.20
2015,05,19,12,14,21.20
2015,05,19,12,15,21.10
2015,05,19,12,16,21.00
2015,05,19,12,17,21.00
2015,05,19,12,18,21.00
2015,05,19,12,19,21.00
2015,05,19,12,20,21.00
2015,05,19,12,21,21.00
2015,05,19,12,22,21.00
2015,05,19,12,23,20.90
2015,05,19,12,24,20.90
2015,05,19,12,25,20.90
2015,05,19,12,26,20.80
2015,05,19,12,27,20.90
2015,05,19,12,28,20.90
2015,05,19,12,29,21.00
2015,05,19,12,30,21.00
2015,05,19,12,31,21.10
2015,05,19,12,32,21.10
2015,05,19,12,33,21.00
2015,05,19,12,34,21.00
2015,05,19,12,35,20.90
2015,05,19,12,36,20.80
2015,05,19,12,37,20.80
2015,05,19,12,38,20.70
2015,05,19,12,39,20.70
2015,05,19,12,40,20.70
2015,05,19,12,41,20.60
2015,05,19,12,42,20.60
2015,05,19,12,43,20.50
2015,05,19,12,44,20.50
2015,05,19,12,45,20.50
2015,05,19,12,46,20.50
2015,05,19,12,47,20.50
2015,05,19,12,48,20.60
2015,05,19,12,49,20.60
2015,05,19,12,50,20.70
2015,05,19,12,51,20.80
2015,05,19,12,52,20.90
2015,05,19,12,53,21.00
2015,05,19,12,54,21.10
2015,05,19,12,55,21.30
2015,05,19,12,56,21.30
2015,05,19,12,57,21.40
2015,05,19,12,58,21.50
2015,05,19,12,59,21.60
2015,05,19,13,00,21.60
2015,05,19,13,01,21.60
2015,05,19,13,02,21.60
2015,05,19,13,03,21.70
2015,05,19,13,04,21.70
2015,05,19,13,05,21.70
2015,05,19,13,06,21.80
2015,05,19,13,07,21.90
2015,05,19,13,08,21.90
2015,05,19,13,09,21.90
2015,05,19,13,10,21.80
2015,05,19,13,11,21.80
2015,05,19,13,12,21.90
2015,05,19,13,13,21.90
2015,05,19,13,14,22.00
2015,05,19,13,15,22.10
2015,05,19,13,16,22.20
2015,05,19,13,17,22.30
2015,05,19,13,18,22.40
2015,05,19,13,19,22.40
2015,05,19,13,20,22.40
2015,05,19,13,21,22.50
2015,05,19,13,22,22.50
2015,05,19,13,23,22.50
2015,05,19,13,24,22.60
2015,05,19,13,25,22.60
2015,05,19,13,26,22.60
2015,05,19,13,27,22.70
2015,05,19,13,28,22.70
2015,05,19,13,29,22.70
2015,05,19,13,30,22.60
2015,05,19,13,31,22.60
2015,05,19,13,32,22.60
2015,05,19,13,33,22.70
2015,05,19,13,34,22.70
2015,05,19,13,35,22.70
2015,05,19,13,36,22.70
2015,05,19,13,37,22.70
2015,05,19,13,38,22.70
2015,05,19,13,39,22.70
2015,05,19,13,40,22.70
2015,05,19,13,41,22.80
2015,05,19,13,42,22.80
2015,05,19,13,43,22.80
2015,05,19,13,44,22.90
2015,05,19,13,45,22.90
2015,05,19,13,46,23.00
2015,05,19,13,47,23.00
2015,05,19,13,48,23.00
2015,05,19,13,49,23.10
2015,05,19,13,50,23.00
2015,05,19,13,51,23.00
2015,05,19,13,52,23.00
2015,05,19,13,53,23.00
2015,05,19,13,54,23.10
2015,05,19,13,55,23.10
2015,05,19,13,56,23.20
2015,05,19,13,57,23.30
2015,05,19,13,58,23.40
2015,05,19,13,59,23.50
2015,05,19,14,00,23.60
2015,05,19,14,01,23.60
2015,05,19,14,02,23.60
2015,05,19,14,03,23.60
2015,05,19,14,04,23.60
2015,05,19,14,05,23.70
2015,05,19,14,06,23.70
2015,05,19,14,07,23.80
2015,05,19,14,08,23.80
2015,05,19,14,09,23.80
2015,05,19,14,10,23.80
2015,05,19,14,11,23.80
2015,05,19,14,12,23.70
2015,05,19,14,13,23.70
2015,05,19,14,14,23.70
2015,05,19,14,15,23.80
2015,05,19,14,16,23.80
2015,05,19,14,17,23.90
2015,05,19,14,18,24.00
2015,05,19,14,19,24.10
2015,05,19,14,20,24.10
2015,05,19,14,21,24.00
2015,05,19,14,22,23.90
2015,05,19,14,23,23.90
2015,05,19,14,24,23.90
2015,05,19,14,25,23.90
2015,05,19,14,26,23.90
2015,05,19,14,27,23.80
2015,05,19,14,28,23.80
2015,05,19,14,29,23.80
2015,05,19,14,30,23.80
2015,05,19,14,31,23.90
2015,05,19,14,32,24.00
2015,05,19,14,33,24.10
2015,05,19,14,34,24.20
2015,05,19,14,35,24.20
2015,05,19,14,36,24.30
2015,05,19,14,37,24.30
2015,05,19,14,38,24.40
2015,05,19,14,39,24.50
2015,05,19,14,40,24.60
2015,05,19,14,41,24.70
2015,05,19,14,42,24.80
2015,05,19,14,43,24.90
2015,05,19,14,44,24.90
2015,05,19,14,45,25.00
2015,05,19,14,46,25.10
2015,05,19,14,47,25.10
2015,05,19,14,48,25.10
2015,05,19,14,49,25.10
2015,05,19,14,50,25.20
2015,05,19,14,51,25.20
2015,05,19,14,52,25.20
2015,05,19,14,53,25.20
2015,05,19,14,54,25.20
2015,05,19,14,55,25.20
2015,05,19,14,56,25.30
2015,05,19,14,57,25.30
2015,05,19,14,58,25.30
2015,05,19,14,59,25.30
2015,05,19,15,00,25.30
2015,05,19,15,01,25.30
2015,05,19,15,02,25.40
2015,05,19,15,03,25.40
2015,05,19,15,04,25.40
2015,05,19,15,05,25.30
2015,05,19,15,06,25.30
2015,05,19,15,07,25.30
2015,05,19,15,08,25.20
2015,05,19,15,09,25.10
2015,05,19,15,10,25.10
2015,05,19,15,11,25.00
2015,05,19,15,12,25.10
2015,05,19,15,13,25.10
2015,05,19,15,14,25.10
2015,05,19,15,15,25.20
2015,05,19,15,16,25.20
2015,05,19,15,17,25.20
2015,05,19,15,18,25.30
2015,05,19,15,19,25.30
2015,05,19,15,20,25.30
2015,05,19,15,21,25.30
2015,05,19,15,22,25.20
2015,05,19,15,23,25.20
2015,05,19,15,24,25.30
2015,05,19,15,25,25.40
2015,05,19,15,26,25.50
2015,05,19,15,27,25.50
2015,05,19,15,28,25.60
2015,05,19,15,29,25.70
2015,05,19,15,30,25.70
2015,05,19,15,31,25.60
2015,05,19,15,32,25.60
2015,05,19,15,33,25.50
2015,05,19,15,34,25.50
2015,05,19,15,35,25.40
2015,05,19,15,36,25.40
2015,05,19,15,37,25.50
2015,05,19,15,38,25.60
2015,05,19,15,39,25.60
2015,05,19,15,40,25.70
2015,05,19,15,41,25.70
2015,05,19,15,42,25.80
2015,05,19,15,43,25.80
2015,05,19,15,44,25.90
2015,05,19,15,45,25.90
2015,05,19,15,46,25.90
2015,05,19,15,47,25.90
2015,05,19,15,48,25.80
2015,05,19,15,49,25.80
2015,05,19,15,50,25.80
2015,05,19,15,51,25.90
2015,05,19,15,52,25.90
2015,05,19,15,53,25.80
2015,05,19,15,54,25.80
2015,05,19,15,55,25.80
2015,05,19,15,56,25.70
2015,05,19,15,57,25.60
2015,05,19,15,58,25.60
2015,05,19,15,59,25.60
2015,05,19,16,00,25.60
2015,05,19,16,01,25.70
2015,05,19,16,02,25.70
2015,05,19,16,03,25.80
2015,05,19,16,04,25.90
2015,05,19,16,05,26.00
2015,05,19,16,06,26.00
2015,05,19,16,07,26.00
2015,05,19,16,08,25.90
2015,05,19,16,09,26.00
2015,05,19,16,10,26.00
2015,05,19,16,11,26.00
2015,05,19,16,12,26.10
2015,05,19,16,13,26.10
2015,05,19,16,14,26.10
2015,05,19,16,15,26.20
2015,05,19,16,16,26.20
2015,05,19,16,17,26.20
2015,05,19,16,18,26.20
2015,05,19,16,19,26.20
2015,05,19,16,20,26.20
2015,05,19,16,21,26.10
2015,05,19,16,22,26.10
2015,05,19,16,23,26.10
2015,05,19,16,24,26.10
2015,05,19,16,25,26.00
2015,05,19,16,26,26.00
2015,05,19,16,27,26.00
2015,05,19,16,28,26.00
2015,05,19,16,29,26.00
2015,05,19,16,30,26.10
2015,05,19,16,31,26.10
2015,05,19,16,32,26.10
2015,05,19,16,33,26.10
2015,05,19,16,34,26.10
2015,05,19,16,35,26.10
2015,05,19,16,36,26.10
2015,05,19,16,37,26.00
2015,05,19,16,38,26.00
2015,05,19,16,39,26.10
2015,05,19,16,40,26.10
2015,05,19,16,41,26.10
2015,05,19,16,42,26.20
2015,05,19,16,43,26.20
2015,05,19,16,44,26.20
2015,05,19,16,45,26.30
2015,05,19,16,46,26.30
2015,05,19,16,47,26.40
2015,05,19,16,48,26.50
2015,05,19,16,49,26.60
2015,05,19,16,50,26.70
2015,05,19,16,51,26.80
2015,05,19,16,52,26.90
2015,05,19,16,53,26.90
2015,05,19,16,54,26.90
2015,05,19,16,55,26.90
2015,05,19,16,56,26.90
2015,05,19,16,57,26.90
2015,05,19,16,58,26.80
2015,05,19,16,59,26.70
2015,05,19,17,00,26.60
2015,05,19,17,01,26.50
2015,05,19,17,02,26.50
2015,05,19,17,03,26.40
2015,05,19,17,04,26.40
2015,05,19,17,05,26.40
2015,05,19,17,06,26.40
2015,05,19,17,07,26.50
2015,05,19,17,08,26.50
2015,05,19,17,09,26.60
2015,05,19,17,10,26.60
2015,05,19,17,11,26.70
2015,05,19,17,12,26.70
2015,05,19,17,13,26.60
2015,05,19,17,14,26.60
2015,05,19,17,15,26.50
2015,05,19,17,16,26.50
2015,05,19,17,17,26.50
2015,05,19,17,18,26.60
2015,05,19,17,19,26.60
2015,05,19,17,20,26.70
2015,05,19,17,21,26.70
2015,05,19,17,22,26.70
2015,05,19,17,23,26.70
2015,05,19,17,24,26.70
2015,05,19,17,25,26.70
2015,05,19,17,26,26.70
2015,05,19,17,27,26.60
2015,05,19,17,28,26.60
2015,05,19,17,29,26.50
2015,05,19,17,30,26.50
2015,05,19,17,31,26.40
2015,05,19,17,32,26.40
2015,05,19,17,33,26.40
2015,05,19,17,34,26.30
2015,05,19,17,35,26.30
2015,05,19,17,36,26.30
2015,05,19,17,37,26.40
2015,05,19,17,38,26.40
2015,05,19,17,39,26.50
2015,05,19,17,40,26.50
2015,05,19,17,41,26.60
2015,05,19,17,42,26.70
2015,05,19,17,43,26.70
2015,05,19,17,44,26.70
2015,05,19,17,45,26.70
2015,05,19,17,46,26.70
2015,05,19,17,47,26.70
2015,05,19,17,48,26.70
2015,05,19,17,49,26.70
2015,05,19,17,50,26.70
2015,05,19,17,51,26.70
2015,05,19,17,52,26.70
2015,05,19,17,53,26.70
2015,05,19,17,54,26.70
2015,05,19,17,55,26.80
2015,05,19,17,56,26.80
2015,05,19,17,57,26.90
2015,05,19,17,58,26.90
2015,05,19,17,59,26.90
2015,05,19,18,00,27.00
2015,05,19,18,01,27.00
2015,05,19,18,02,27.10
2015,05,19,18,03,27.10
2015,05,19,18,04,27.10
2015,05,19,18,05,27.10
2015,05,19,18,06,27.10
2015,05,19,18,07,27.00
2015,05,19,18,08,27.00
2015,05,19,18,09,27.00
2015,05,19,18,10,27.00
2015,05,19,18,11,26.90
2015,05,19,18,12,26.90
2015,05,19,18,13,26.80
2015,05,19,18,14,26.80
2015,05,19,18,15,26.70
2015,05,19,18,16,26.70
2015,05,19,18,17,26.60